H1 CPF 2 COD 2023 6 30 1 181 1 galileo213 NONE
H2 1606903 7213 41861 2023 6 29 23 59 42 2023 7 4 23 59 42 900 1 1 0 0 0 1
H5 0.5552
H9
10 0 60124  86382.000000  0  -12635098.066  11841787.220 -23995456.494
10 0 60125    882.000000  0  -14469312.741  10727886.944 -23477662.812
10 0 60125   1782.000000  0  -16321742.636   9768775.790 -22667634.080
10 0 60125   2682.000000  0  -18156411.259   8972305.732 -21575448.655
10 0 60125   3582.000000  0  -19936855.839   8340242.172 -20214699.322
10 0 60125   4482.000000  0  -21627225.917   7868257.632 -18602324.073
10 0 60125   5382.000000  0  -23193365.147   7546118.525 -16758395.040
10 0 60125   6282.000000  0  -24603842.407   7358059.049 -14705868.207
10 0 60125   7182.000000  0  -25830899.937   7283330.366 -12470296.987
10 0 60125   8082.000000  0  -26851288.805   7296907.712 -10079513.272
10 0 60125   8982.000000  0  -27646965.519   7370333.107  -7563279.940
10 0 60125   9882.000000  0  -28205627.970   7472667.071  -4952919.213
10 0 60125  10782.000000  0  -28521073.959   7571519.305  -2280921.557
10 0 60125  11682.000000  0  -28593371.106   7634125.823    419459.907
10 0 60125  12582.000000  0  -28428832.919   7628438.580   3114624.349
10 0 60125  13482.000000  0  -28039801.873   7524193.225   5771042.262
10 0 60125  14382.000000  0  -27444246.428   7293921.361   8355673.282
10 0 60125  15282.000000  0  -26665184.756   6913875.437  10836377.517
10 0 60125  16182.000000  0  -25729953.397   6364837.176  13182315.230
10 0 60125  17082.000000  0  -24669343.869   5632784.153  15364329.868
10 0 60125  17982.000000  0  -23516634.419   4709393.577  17355309.711
10 0 60125  18882.000000  0  -22306547.315   3592367.506  19130523.668
10 0 60125  19782.000000  0  -21074164.369   2285569.291  20667927.145
10 0 60125  20682.000000  0  -19853834.654    798966.991  21948434.270
10 0 60125  21582.000000  0  -18678108.550   -851614.486  22956153.233
10 0 60125  22482.000000  0  -17576731.403  -2644924.782  23678581.939
10 0 60125  23382.000000  0  -16575728.144  -4554889.607  24106761.671
10 0 60125  24282.000000  0  -15696607.400  -6551363.632  24235386.991
10 0 60125  25182.000000  0  -14955709.817  -8601011.364  24062870.591
10 0 60125  26082.000000  0  -14363720.847 -10668288.619  23591362.375
10 0 60125  26982.000000  0  -13925363.121 -12716494.086  22826722.566
10 0 60125  27882.000000  0  -13639277.905 -14708858.318  21778449.170
10 0 60125  28782.000000  0  -13498099.303 -16609636.308  20459560.670
10 0 60125  29682.000000  0  -13488718.820 -18385169.689  18886435.337
10 0 60125  30582.000000  0  -13592732.014 -20004885.520  17078609.062
10 0 60125  31482.000000  0  -13787053.258 -21442200.575  15058534.122
10 0 60125  32382.000000  0  -14044679.394 -22675302.945  12851301.745
10 0 60125  33282.000000  0  -14335578.395 -23687786.601  10484331.827
10 0 60125  34182.000000  0  -14627675.224 -24469119.078   7987033.530
10 0 60125  35082.000000  0  -14887904.005 -25014927.662   5390440.913
10 0 60125  35982.000000  0  -15083293.518 -25327095.104   2726828.043
10 0 60125  36882.000000  0  -15182051.951 -25413661.835     29308.354
10 0 60125  37782.000000  0  -15154616.816 -25288537.732  -2668576.806
10 0 60125  38682.000000  0  -14974637.015 -24971032.406  -5333275.275
10 0 60125  39582.000000  0  -14619856.115 -24485218.759  -7931641.637
10 0 60125  40482.000000  0  -14072869.006 -23859149.724 -10431349.975
10 0 60125  41382.000000  0  -13321728.016 -23123952.772 -12801296.637
10 0 60125  42282.000000  0  -12360379.327 -22312830.610 -15011987.952
10 0 60125  43182.000000  0  -11188915.826 -21459999.425 -17035907.997
10 0 60125  44082.000000  0   -9813638.277 -20599598.039 -18847861.811
10 0 60125  44982.000000  0   -8246922.743 -19764602.210 -20425289.734
10 0 60125  45882.000000  0   -6506898.232 -18985778.204 -21748548.940
10 0 60125  46782.000000  0   -4616944.527 -18290708.464 -22801158.637
10 0 60125  47682.000000  0   -2605025.761 -17702920.013 -23570005.890
10 0 60125  48582.000000  0    -502880.498 -17241142.924 -24045509.472
10 0 60125  49482.000000  0    1654906.485 -16918722.158 -24221739.737
10 0 60125  50382.000000  0    3831921.741 -16743201.240 -24096492.985
10 0 60125  51282.000000  0    5990998.307 -16716090.841 -23671319.398
10 0 60125  52182.000000  0    8095314.887 -16832829.550 -22951504.176
10 0 60125  53082.000000  0   10109484.781 -17082938.064 -21946002.079
10 0 60125  53982.000000  0   12000600.509 -17450361.983 -20667326.166
10 0 60125  54882.000000  0   13739201.542 -17913992.430 -19131392.068
10 0 60125  55782.000000  0   15300134.865 -18448348.155 -17357319.726
10 0 60125  56682.000000  0   16663281.515 -19024397.692 -15367195.015
10 0 60125  57582.000000  0   17814126.389 -19610495.703 -13185794.234
10 0 60125  58482.000000  0   18744153.554 -20173404.070 -10840274.889
10 0 60125  59382.000000  0   19451054.759 -20679365.592  -8359836.649
10 0 60125  60282.000000  0   19938744.723 -21095196.497  -5775356.742
10 0 60125  61182.000000  0   20217182.855 -21389363.368  -3119004.410
10 0 60125  62082.000000  0   20302007.142 -21533010.582   -423839.291
10 0 60125  62982.000000  0   20213991.851 -21500905.914   2276601.165
10 0 60125  63882.000000  0   19978346.254 -21272274.565   4948720.020
10 0 60125  64782.000000  0   19623876.527 -20831495.363   7559279.606
10 0 60125  65682.000000  0   19182037.319 -20168637.286  10075815.440
10 0 60125  66582.000000  0   18685902.874 -19279819.455  12467040.074
10 0 60125  67482.000000  0   18169090.128 -18167383.328  14703231.841
10 0 60125  68382.000000  0   17664667.634 -16839871.717  16756603.651
10 0 60125  69282.000000  0   17204084.601 -15311815.320  18601647.314
10 0 60125  70182.000000  0   16816153.610 -13603333.481  20215449.144
10 0 60125  71082.000000  0   16526118.894 -11739561.683  21577973.055
10 0 60125  71982.000000  0   16354839.302  -9749923.675  22672307.722
10 0 60125  72882.000000  0   16318111.484  -7667270.958  23484874.886
10 0 60125  73782.000000  0   16426154.384  -5526916.455  24005596.336
10 0 60125  74682.000000  0   16683271.135  -3365592.445  24228017.628
10 0 60125  75582.000000  0   17087698.837  -1220365.185  24149387.100
10 0 60125  76482.000000  0   17631650.912    872460.053  23770689.295
10 0 60125  77382.000000  0   18301550.678   2878409.510  23096632.410
10 0 60125  78282.000000  0   19078448.869   4765853.796  22135589.951
10 0 60125  79182.000000  0   19938612.081   6506931.627  20899497.290
10 0 60125  80082.000000  0   20854263.823   8078355.755  19403704.341
10 0 60125  80982.000000  0   21794455.069   9462076.067  17666786.122
10 0 60125  81882.000000  0   22726037.174  10645779.250  15710313.429
10 0 60125  82782.000000  0   23614706.790  11623209.492  13558586.374
10 0 60125  83682.000000  0   24426090.148  12394300.259  11238333.963
10 0 60125  84582.000000  0   25126832.813  12965113.063   8778383.354
10 0 60125  85482.000000  0   25685660.780  13347585.156   6209302.805
10 0 60125  86382.000000  0   26074379.679  13559094.074   3563022.673
10 0 60126    882.000000  0   26268780.713  13621852.671    872439.145
10 0 60126   1782.000000  0   26249424.851  13562153.625  -1828994.409
10 0 60126   2682.000000  0   26002280.608  13409487.124  -4507683.357
10 0 60126   3582.000000  0   25519195.278  13195559.439  -7130309.809
10 0 60126   4482.000000  0   24798184.708  12953243.230  -9664247.458
10 0 60126   5382.000000  0   23843532.401  12715492.581 -12077968.042
10 0 60126   6282.000000  0   22665694.694  12514256.905 -14341434.305
10 0 60126   7182.000000  0   21281014.856  12379427.891 -16426474.521
10 0 60126   8082.000000  0   19711254.950  12337852.647 -18307133.861
10 0 60126   8982.000000  0   17982960.013  12412444.123 -19959998.191
10 0 60126   9882.000000  0   16126674.384  12621416.838 -21364486.247
10 0 60126  10782.000000  0   14176034.648  12977672.001 -22503106.526
10 0 60126  11682.000000  0   12166767.495  13488351.448 -23361675.687
10 0 60126  12582.000000  0   10135623.839  14154574.483 -23929495.740
10 0 60126  13482.000000  0    8119282.461  14971366.004 -24199487.821
10 0 60126  14382.000000  0    6153257.448  15927778.273 -24168280.869
10 0 60126  15282.000000  0    4270843.553  17007202.617 -23836254.106
10 0 60126  16182.000000  0    2502132.416  18187861.390 -23207532.772
10 0 60126  17082.000000  0     873130.377  19443464.861 -22289937.134
10 0 60126  17982.000000  0    -594994.583  20744012.512 -21094885.392
10 0 60126  18882.000000  0   -1886513.259  22056713.672 -19637251.635
10 0 60126  19782.000000  0   -2991564.293  23346998.680 -17935180.608
10 0 60126  20682.000000  0   -3906398.539  24579588.869 -16009861.548
10 0 60126  21582.000000  0   -4633431.181  25719591.831 -13885263.906
10 0 60126  22482.000000  0   -5181100.089  26733587.586 -11587838.235
10 0 60126  23382.000000  0   -5563534.992  27590671.560  -9146185.997
10 0 60126  24282.000000  0   -5800048.007  28263421.608  -6590702.440
10 0 60126  25182.000000  0   -5914461.655  28728758.715  -3953197.049
10 0 60126  26082.000000  0   -5934295.663  28968674.341  -1266496.384
10 0 60126  26982.000000  0   -5889838.225  28970801.582   1435965.660
10 0 60126  27882.000000  0   -5813131.091  28728812.230   4120564.979
10 0 60126  28782.000000  0   -5736900.483  28242627.315   6753906.469
10 0 60126  29682.000000  0   -5693467.580  27518434.584   9303240.029
10 0 60126  30582.000000  0   -5713672.870  26568512.433  11736868.117
10 0 60126  31482.000000  0   -5825848.256  25410865.900  14024539.733
10 0 60126  32382.000000  0   -6054869.191  24068686.227  16137825.950
10 0 60126  33282.000000  0   -6421316.650  22569650.984  18050472.322
10 0 60126  34182.000000  0   -6940775.183  20945086.738  19738723.866
10 0 60126  35082.000000  0   -7623289.068  19229020.523  21181618.662
10 0 60126  35982.000000  0   -8472993.561  17457149.772  22361246.544
10 0 60126  36882.000000  0   -9487932.779  15665762.895  23262969.778
99